KI5QWQ Weather Reports


time (UTC)temp
F
wind
direction
speed
knots
gust
knots
rain 1hr
in
rain 24hr
in
rain mn
in
humidity
%
barometer
mb
20260510231251 0 174 0.0 1.7 0.00 0.00 0.00 1015.1
20260510230747 0 176 0.0 2.6 0.00 0.00 0.00 1015.1
20260510230242 0 176 0.0 2.6 0.00 0.00 0.00 1015.1
20260510225740 0 101 1.7 4.3 0.00 0.00 0.00 1015.1
20260510225235 0 64 2.6 4.3 0.00 0.00 0.00 1015.2
20260510224731 0 105 1.7 6.1 0.00 0.00 0.00 1015.2
20260510224228 0 111 1.7 2.6 0.00 0.00 0.00 1014.8
20260510223726 0 199 2.6 3.5 0.00 0.00 0.00 1014.8
20260510223222 0 169 2.6 5.2 0.00 0.00 0.00 1014.8
20260510222720 0 355 1.7 4.3 0.00 0.00 0.00 1014.5
20260510222216 0 355 1.7 4.3 0.00 0.00 0.00 1014.3
20260510221712 0 150 3.5 6.1 0.00 0.00 0.00 1014.4
20260510221209 0 198 2.6 3.5 0.00 0.00 0.00 1014.4
20260510220705 0 152 2.6 3.5 0.00 0.00 0.00 1014.4
20260510220200 0 202 0.9 2.6 0.00 0.00 0.00 1014.4
20260510215658 0 202 0.9 2.6 0.00 0.00 0.00 1014.7
20260510215156 0 33 1.7 4.3 0.00 0.00 0.00 1014.7
20260510214652 0 66 0.9 4.3 0.00 0.00 0.00 1014.7
20260510214149 0 205 1.7 3.5 0.00 0.00 0.00 1014.7
20260510213646 0 205 1.7 3.5 0.00 0.00 0.00 1015.0
20260510213143 0 205 1.7 3.5 0.00 0.00 0.00 1015.0
20260510212639 0 205 1.7 3.5 0.00 0.00 0.00 1015.0
20260510212136 0 183 2.6 4.3 0.00 0.00 0.00 1015.1
20260510211632 0 183 2.6 4.3 0.00 0.00 0.00 1015.3
20260510211127 0 183 2.6 4.3 0.00 0.00 0.00 1015.4
20260510210624 0 183 2.6 4.3 0.00 0.00 0.00 1015.4
20260510210119 0 183 2.6 4.3 0.00 0.00 0.00 1015.4
20260510205618 0 183 2.6 4.3 0.00 0.00 0.00 1015.6
20260510205114 0 183 2.6 4.3 0.00 0.00 0.00 1015.7
20260510204611 0 183 2.6 7.8 0.00 0.00 0.00 1015.9
20260510204108 0 205 0.0 2.6 0.00 0.00 0.00 1015.8
20260510203604 0 205 0.0 2.6 0.00 0.00 0.00 1016.0
20260510203102 0 205 0.0 2.6 0.00 0.00 0.00 1016.0
20260510202601 0 205 0.0 2.6 0.00 0.00 0.00 1016.0
20260510202057 0 285 0.9 1.7 0.00 0.00 0.00 1015.9
20260510201554 0 285 0.9 1.7 0.00 0.00 0.00 1015.8
20260510201051 0 158 4.3 4.3 0.00 0.00 0.00 1015.8
20260510200546 0 158 4.3 4.3 0.00 0.00 0.00 1015.8
20260510200045 0 158 4.3 4.3 0.00 0.00 0.00 1015.7
20260510195543 0 158 4.3 4.3 0.00 0.00 0.00 1015.7
20260510195038 0 158 4.3 4.3 0.00 0.00 0.00 1015.9
20260510194533 0 158 4.3 4.3 0.00 0.00 0.00 1015.9
20260510194030 0 158 4.3 4.3 0.00 0.00 0.00 1015.8
20260510193525 0 158 4.3 4.3 0.00 0.00 0.00 1016.0
20260510193021 0 158 4.3 4.3 0.00 0.00 0.00 1016.0
20260510192515 0 158 4.3 4.3 0.00 0.00 0.00 1016.0
20260510192012 0 192 2.6 3.5 0.00 0.00 0.00 1016.1
20260510191509 0 192 2.6 3.5 0.00 0.00 0.00 1016.1
20260510191005 0 192 2.6 3.5 0.00 0.00 0.00 1015.8
20260510190503 0 192 2.6 3.5 0.00 0.00 0.00 1016.0
20260510185959 0 192 2.6 3.5 0.00 0.00 0.00
20260510185456 0 192 2.6 3.5 0.00 0.00 0.00
20260510184953 0 130 2.6 4.3 0.00 0.00 0.00
20260510184450 0 159 2.6 7.0 0.00 0.00 0.00 1016.5
20260510183945 0 207 1.7 3.5 0.00 0.00 0.00 1016.5
20260510183442 0 174 2.6 4.3 0.00 0.00 0.00 1016.5
20260510182941 0 112 0.9 4.3 0.00 0.00 0.00 1016.5
20260510182438 0 188 1.7 4.3 0.00 0.00 0.00 1016.5
20260510181933 0 183 1.7 3.5 0.00 0.00 0.00 1016.5
20260510181432 0 173 1.7 1.7 0.00 0.00 0.00 1016.5
20260510180928 0 143 1.7 2.6 0.00 0.00 0.00 1016.5
20260510180425 0 189 0.9 4.3 0.00 0.00 0.00 1016.5
20260510175922 0 230 1.7 7.0 0.00 0.00 0.00 1016.5
20260510175418 0 176 2.6 3.5 0.00 0.00 0.00 1016.5
20260510174913 0 116 3.5 7.8 0.00 0.00 0.00 1017.2
20260510174412 0 152 3.5 7.0 0.00 0.00 0.00 1017.2
20260510173908 0 173 1.7 5.2 0.00 0.00 0.00 1017.2
20260510173404 0 200 2.6 5.2 0.00 0.00 0.00 1017.2
20260510172900 0 184 2.6 3.5 0.00 0.00 0.00 1017.2
20260510172356 0 161 1.7 5.2 0.00 0.00 0.00 1017.2
20260510171852 0 92 2.6 4.3 0.00 0.00 0.00 1017.2
20260510171350 0 91 0.9 7.0 0.00 0.00 0.00 1017.2
20260510170847 0 151 1.7 5.2 0.00 0.00 0.00 1017.2
20260510170343 0 252 1.7 4.3 0.00 0.00 0.00 1017.2
20260510165838 0 176 1.7 3.5 0.00 0.00 0.00 1017.2
20260510165335 0 149 0.9 7.0 0.00 0.00 0.00 1017.5
20260510164833 0 154 1.7 7.0 0.00 0.00 0.00 1017.5
20260510164330 0 123 4.3 5.2 0.00 0.00 0.00 1017.5
20260510163829 0 161 2.6 6.1 0.00 0.00 0.00 1017.5
20260510163326 0 224 0.0 3.5 0.00 0.00 0.00 1017.5
20260510162820 0 145 0.9 5.2 0.00 0.00 0.00 1017.5
20260510162318 0 176 2.6 5.2 0.00 0.00 0.00 1017.5
20260510161813 0 121 0.9 5.2 0.00 0.00 0.00 1017.4
20260510161309 0 145 1.7 4.3 0.00 0.00 0.00 1017.4
20260510160806 0 160 0.0 7.0 0.00 0.00 0.00 1017.4
20260510160303 0 194 1.7 5.2 0.00 0.00 0.00
20260510155757 0 164 3.5 5.2 0.00 0.00 0.00
20260510155254 0 101 0.9 3.5 0.00 0.00 0.00
20260510154749 0 146 1.7 5.2 0.00 0.00 0.00
20260510154246 0 42 0.0 3.5 0.00 0.00 0.00
20260510153741 0 173 1.7 5.2 0.00 0.00 0.00
20260510153237 0 156 0.9 4.3 0.00 0.00 0.00
20260510152734 0 189 1.7 4.3 0.00 0.00 0.00
20260510152230 0 158 2.6 4.3 0.00 0.00 0.00
20260510151727 0 157 0.9 3.5 0.00 0.00 0.00
20260510151226 0 176 2.6 3.5 0.00 0.00 0.00
20260510150721 0 221 0.9 6.1 0.00 0.00 0.00
20260510150216 0 145 1.7 3.5 0.00 0.00 0.00
20260510145713 0 76 0.9 4.3 0.00 0.00 0.00
20260510145209 0 190 1.7 5.2 0.00 0.00 0.00
20260510144705 0 164 0.9 5.2 0.00 0.00 0.00
20260510144202 0 89 0.9 2.6 0.00 0.00 0.00
20260510143657 0 165 0.0 3.5 0.00 0.00 0.00
20260510143154 0 155 2.6 5.2 0.00 0.00 0.00
20260510142650 0 218 2.6 4.3 0.00 0.00 0.00 1016.6
20260510142147 0 162 0.9 3.5 0.00 0.00 0.00 1016.6
20260510141644 0 157 1.7 4.3 0.00 0.00 0.00 1016.6
20260510141142 0 257 0.0 2.6 0.00 0.00 0.00 1016.6
20260510140638 0 151 0.9 2.6 0.00 0.00 0.00 1016.6
20260510140137 0 202 0.0 3.5 0.00 0.00 0.00 1016.6
20260510135633 0 133 0.9 4.3 0.00 0.00 0.00 1016.6
20260510135129 0 136 0.9 3.5 0.00 0.00 0.00 1016.6
20260510134626 0 103 0.0 2.6 0.00 0.00 0.00 1016.6
20260510134123 0 132 2.6 4.3 0.00 0.00 0.00 1016.6
20260510133620 0 184 0.9 4.3 0.00 0.00 0.00 1016.6
20260510133115 0 121 1.7 2.6 0.00 0.00 0.00 1016.6
20260510132612 0 98 1.7 2.6 0.00 0.00 0.00
20260510132109 0 161 0.9 2.6 0.00 0.00 0.00
20260510131607 0 180 0.0 2.6 0.00 0.00 0.00
20260510131104 0 137 1.7 3.5 0.00 0.00 0.00 1015.4
20260510130600 0 167 0.0 2.6 0.00 0.00 0.00 1015.4
20260510130058 0 158 0.9 3.5 0.00 0.00 0.00 1015.4
20260510125554 0 180 0.0 3.5 0.00 0.00 0.00 1015.4
20260510125050 0 207 0.9 2.6 0.00 0.00 0.00 1015.4
20260510124547 0 182 0.9 1.7 0.00 0.00 0.00 1015.4
20260510124044 0 183 0.9 2.6 0.00 0.00 0.00 1015.4
20260510123539 0 141 1.7 2.6 0.00 0.00 0.00 1015.4
20260510123036 0 154 0.9 1.7 0.00 0.00 0.00 1015.4
20260510122531 0 131 0.0 1.7 0.00 0.00 0.00 1015.4
20260510122028 0 154 0.0 0.9 0.00 0.00 0.00 1015.4
20260510121525 0 129 0.0 1.7 0.00 0.00 0.00 1015.3
20260510121022 0 124 0.0 0.9 0.00 0.00 0.00 1014.6
20260510120519 0 186 0.0 0.9 0.00 0.00 0.00 1014.6
20260510120015 0 141 0.9 2.6 0.00 0.00 0.00 1014.6
20260510115512 0 113 0.0 1.7 0.00 0.00 0.00 1014.6
20260510115009 0 117 0.0 0.9 0.00 0.00 0.00 1014.6
20260510114505 0 142 0.0 0.9 0.00 0.00 0.00 1014.6
20260510114001 0 142 0.0 0.9 0.00 0.00 0.00 1014.6
20260510113456 0 205 0.0 0.9 0.00 0.00 0.00 1014.6
20260510112954 0 154 0.0 0.9 0.00 0.00 0.00 1014.6
20260510112451 0 172 0.0 0.9 0.00 0.00 0.00
20260510111947 0 255 0.0 0.9 0.00 0.00 0.00
20260510111443 0 242 0.0 0.9 0.00 0.00 0.00
20260510110940 0 129 0.0 0.9 0.00 0.00 0.00
20260510110436 0 205 0.0 0.9 0.00 0.00 0.00
20260510105932 0 215 0.0 0.9 0.00 0.00 0.00
20260510105427 0 230 0.0 0.9 0.00 0.00 0.00
20260510104922 0 212 0.0 0.9 0.00 0.00 0.00
20260510104420 0 189 0.0 0.9 0.00 0.00 0.00
20260510103916 0 129 0.0 0.9 0.00 0.00 0.00
20260510103414 0 124 0.0 1.7 0.00 0.00 0.00
20260510102914 0 154 0.0 0.9 0.00 0.00 0.00
20260510102410 0 154 0.0 1.7 0.00 0.00 0.00
20260510101902 0 194 0.9 2.6 0.00 0.00 0.00
20260510101400 0 158 0.0 1.7 0.00 0.00 0.00
20260510100856 0 186 0.0 1.7 0.00 0.00 0.00
20260510100354 0 168 0.9 1.7 0.00 0.00 0.00
20260510095850 0 125 0.0 1.7 0.00 0.00 0.00
20260510095345 0 230 0.0 1.7 0.00 0.00 0.00
20260510094845 0 164 0.0 1.7 0.00 0.00 0.00
20260510094340 0 201 0.9 3.5 0.00 0.00 0.00
20260510093837 0 164 0.0 1.7 0.00 0.00 0.00
20260510093332 0 205 0.0 1.7 0.00 0.00 0.00
20260510092829 0 207 1.7 1.7 0.00 0.00 0.00
20260510092325 0 336 0.9 2.6 0.00 0.00 0.00
20260510091821 0 199 0.9 1.7 0.00 0.00 0.00
20260510091318 0 184 0.9 1.7 0.00 0.00 0.00
20260510090814 0 212 1.7 2.6 0.00 0.00 0.00
20260510090311 0 226 1.7 1.7 0.00 0.00 0.00
20260510085807 0 209 0.0 1.7 0.00 0.00 0.00
20260510085301 0 205 0.9 1.7 0.00 0.00 0.00
20260510084757 0 157 1.7 2.6 0.00 0.00 0.00
20260510084254 0 197 0.9 1.7 0.00 0.00 0.00
20260510083751 0 205 0.9 3.5 0.00 0.00 0.00
20260510083248 0 260 0.0 3.5 0.00 0.00 0.00
20260510082743 0 213 0.9 2.6 0.00 0.00 0.00
20260510082240 0 185 0.0 1.7 0.00 0.00 0.00
20260510081739 0 241 0.0 1.7 0.00 0.00 0.00
20260510081236 0 214 0.9 3.5 0.00 0.00 0.00
20260510080731 0 173 0.9 4.3 0.00 0.00 0.00
20260510080227 0 174 0.0 2.6 0.00 0.00 0.00
20260510075723 0 86 0.0 2.6 0.00 0.00 0.00
20260510075221 0 150 0.0 1.7 0.00 0.00 0.00
20260510074719 0 170 0.9 0.9 0.00 0.00 0.00
20260510074215 0 152 0.9 3.5 0.00 0.00 0.00
20260510073711 0 76 0.0 1.7 0.00 0.00 0.00
20260510073207 0 228 0.0 1.7 0.00 0.00 0.00
20260510072703 0 230 0.0 0.9 0.00 0.00 0.00
20260510072200 0 150 0.0 2.6 0.00 0.00 0.00
20260510071656 0 177 1.7 3.5 0.00 0.00 0.00
20260510071153 0 188 0.9 4.3 0.00 0.00 0.00
20260510070651 0 185 0.9 1.7 0.00 0.00 0.00
20260510070148 0 142 0.9 1.7 0.00 0.00 0.00
20260510065643 0 224 0.0 1.7 0.00 0.00 0.00
20260510065139 0 126 1.7 2.6 0.00 0.00 0.00
20260510064636 0 188 0.9 4.3 0.00 0.00 0.00
20260510064133 0 212 0.9 1.7 0.00 0.00 0.00
20260510063630 0 176 0.9 3.5 0.00 0.00 0.00
20260510063127 0 152 0.9 3.5 0.00 0.00 0.00
20260510062623 0 180 0.0 2.6 0.00 0.00 0.00
20260510062118 0 152 0.0 3.5 0.00 0.00 0.00
20260510061614 0 182 1.7 4.3 0.00 0.00 0.00
20260510061112 0 147 0.0 6.1 0.00 0.00 0.00
20260510060608 0 199 2.6 6.1 0.00 0.00 0.00
20260510060105 0 166 2.6 3.5 0.00 0.00 0.00
20260510055600 0 158 0.9 2.6 0.00 0.00 0.00
20260510055059 0 132 0.9 1.7 0.00 0.00 0.00
20260510054554 0 199 0.0 2.6 0.00 0.00 0.00
20260510054050 0 182 0.9 6.1 0.00 0.00 0.00
20260510053549 0 129 0.0 0.9 0.00 0.00 0.00
20260510053047 0 140 0.0 2.6 0.00 0.00 0.00
20260510052543 0 197 0.0 1.7 0.00 0.00 0.00
20260510052039 0 175 0.0 0.9 0.00 0.00 0.00
20260510051534 0 150 0.0 2.6 0.00 0.00 0.00
20260510051031 0 117 0.0 0.9 0.00 0.00 0.00
20260510050529 0 142 0.0 1.7 0.00 0.00 0.00
20260510050026 0 159 0.0 1.7 0.00 0.12 0.12
20260510045523 0 242 0.0 1.7 0.00 0.12 0.12
20260510045019 0 104 0.0 0.0 0.00 0.12 0.12
20260510044516 0 129 0.0 0.9 0.00 0.12 0.12
20260510044013 0 129 0.0 0.0 0.00 0.12 0.12
20260510043508 0 129 0.0 0.0 0.00 0.12 0.12
20260510043004 0 205 0.0 0.0 0.00 0.12 0.12
20260510042458 0 205 0.0 0.0 0.00 0.12 0.12
20260510041953 0 205 0.0 0.0 0.00 0.12 0.12
20260510041450 0 205 0.0 0.0 0.00 0.12 0.12
20260510040948 0 205 0.0 0.0 0.00 0.12 0.12
20260510040444 0 217 0.0 0.0 0.00 0.12 0.12
20260510035940 0 129 0.0 0.0 0.00 0.12 0.12
20260510035437 0 129 0.0 0.9 0.00 0.12 0.12
20260510034936 0 217 0.0 0.9 0.00 0.12 0.12
20260510034436 0 230 0.0 0.0 0.00 0.12 0.12
20260510033932 0 230 0.0 0.0 0.00 0.12 0.12
20260510033428 0 230 0.0 0.0 0.00 0.12 0.12
20260510032925 0 230 0.0 0.0 0.00 0.12 0.12
20260510032422 0 230 0.0 0.0 0.00 0.12 0.12
20260510031917 0 230 0.0 0.0 0.00 0.12 0.12
20260510031413 0 230 0.0 0.9 0.00 0.12 0.12
20260510030907 0 217 0.0 0.0 0.00 0.12 0.12
20260510030404 0 212 0.0 0.0 0.00 0.12 0.12
20260510025901 0 212 0.0 0.0 0.00 0.12 0.12
20260510025359 0 191 0.0 0.9 0.00 0.12 0.12
20260510024856 0 217 0.0 0.0 0.00 0.12 0.12
20260510024352 0 230 0.0 0.9 0.00 0.12 0.12
20260510023848 0 117 0.0 0.0 0.00 0.12 0.12
20260510023345 0 117 0.0 0.9 0.00 0.12 0.12
20260510022842 0 230 0.0 0.0 0.00 0.12 0.12
20260510022341 0 230 0.0 0.0 0.00 0.12 0.12 1011.7
20260510021840 0 230 0.0 0.0 0.00 0.12 0.12 1011.7
20260510021339 0 230 0.0 0.0 0.00 0.12 0.12 1011.7
20260510020834 0 230 0.0 0.0 0.00 0.12 0.12 1011.7
20260510020329 0 230 0.0 0.0 0.00 0.12 0.12 1011.7
20260510015825 0 230 0.0 0.9 0.00 0.12 0.12 1011.7
20260510015321 0 235 0.0 0.0 0.00 0.12 0.12 1011.7
20260510014816 0 235 0.0 0.0 0.00 0.12 0.12 1011.7
20260510014314 0 195 0.0 0.0 0.00 0.12 0.12 1011.7
20260510013810 0 140 0.0 1.7 0.00 0.12 0.12 1011.7
20260510013305 0 195 0.0 0.0 0.00 0.12 0.12 1011.7
20260510012801 0 191 0.0 1.7 0.00 0.12 0.12 1011.7
20260510012255 0 165 0.0 1.7 0.00 0.12 0.12
20260510011755 0 139 0.0 1.7 0.00 0.12 0.12
20260510011251 0 195 0.0 1.7 0.00 0.12 0.12
20260510010748 0 180 0.0 2.6 0.00 0.12 0.12
20260510010244 0 205 0.0 2.6 0.00 0.12 0.12
20260510005741 0 183 0.0 1.7 0.00 0.12 0.12
20260510005237 0 205 0.0 1.7 0.00 0.12 0.12
20260510004735 0 122 0.0 1.7 0.00 0.12 0.12
20260510004233 0 203 0.0 2.6 0.00 0.12 0.12
20260510003730 0 199 0.9 5.2 0.00 0.12 0.12
20260510003227 0 166 0.9 3.5 0.00 0.12 0.12
20260510002725 0 161 0.0 2.6 0.00 0.12 0.12
20260510002223 0 166 0.9 5.2 0.00 0.12 0.12
20260510001720 0 132 1.7 3.5 0.00 0.12 0.12
20260510001219 0 201 0.0 2.6 0.00 0.12 0.12
20260510000714 0 181 0.0 3.5 0.00 0.12 0.12
20260510000211 0 162 0.9 2.6 0.00 0.12 0.12
20260509235708 0 190 0.0 2.6 0.00 0.12 0.12
20260509235204 0 173 0.0 2.6 0.00 0.12 0.12
20260509234701 0 169 0.9 3.5 0.00 0.12 0.12
20260509234158 0 150 1.7 3.5 0.00 0.12 0.12 1010.6
20260509233656 0 154 0.0 3.5 0.00 0.12 0.12 1010.6
20260509233153 0 122 1.7 2.6 0.00 0.12 0.12 1010.6
20260509232649 0 95 0.9 2.6 0.00 0.12 0.12 1010.6
20260509232146 0 195 0.0 1.7 0.00 0.12 0.12 1010.6
20260509231643 0 351 0.0 2.6 0.00 0.12 0.12 1010.6